[[{"header":{"parameterUnit":"m.s-1","parameterCategory":2,"la1":30.2991,"la2":30.254,"lo1":-89.0895,"lo2":-89.0444,"dy":0.0017,"dx":0.0017,"nx":28,"ny":28,"refTime":"2025-03-03T09:00:00:Z","depth":"0","parameterNumber":2,"parameterNumberName":"U-component_of_CURRENTS"},"data":[0,0,0,0,0,0,0,0,0,0,0,0,0,0,0,0,0,0,0,0,0,0,0,0,0,0,0,0,0,0,0,0,0,0,0,0,0,0,0,0,0,0,0,0,0,0,0,0,0,0,0,0,0,0,0,0,0,0,0.268,0.2681,0,0.2704,0.2705,0.2705,0.2705,0.2705,0.2705,0.2705,0.2662,0.2661,0.266,0,0,0,0,0,0,0,0,0,0,0,0,0,0.2621,0.2622,0.268,0.2681,0.2681,0.2704,0.2705,0.2705,0.2705,0.2705,0.2705,0.2705,0.2662,0.2661,0.266,0,0,0,0,0,0,0,0,0,0,0,0,0,0.2645,0.2623,0.268,0.2685,0.2686,0.2704,0.2705,0.2705,0.2705,0.2705,0.2705,0.2704,0.2662,0.2661,0.2659,0.2655,0,0,0.2655,0.2654,0,0,0,0,0,0,0,0,0.2643,0.2647,0.2684,0.2685,0.2686,0.2703,0.2668,0.2685,0.2705,0.2696,0.2705,0.2704,0.267,0.2668,0.2672,0.2653,0.2651,0.2655,0.2654,0.2653,0.2653,0,0,0,0,0,0,0,0.2642,0.2646,0.2688,0.2685,0.2686,0.2682,0.2685,0.2672,0.2682,0.2697,0.2697,0.2703,0.267,0.2673,0.2671,0.265,0.2655,0.2653,0.2652,0.2652,0.2709,0.2711,0,0,0,0,0,0,0.2643,0.2644,0.2687,0.2689,0.2666,0.2684,0.2687,0.2696,0.2683,0.2682,0.2703,0.2703,0.2676,0.2673,0.2669,0.274,0.2653,0.2652,0.2651,0.2706,0.2709,0.2712,0,0,0,0,0,0,0.2642,0.2647,0.2686,0.2668,0.2673,0.2685,0.2696,0.2697,0.2708,0.2689,0.2686,0.2714,0.2676,0.2671,0.2687,0.2735,0.2651,0.265,0.2704,0.2707,0.2711,0.283,0,0,0,0,0,0,0.264,0.2647,0.2655,0.2668,0.2674,0.2716,0.2696,0.2698,0.2712,0.2712,0.2697,0.2693,0.2675,0.2689,0.2685,0.2731,0.2649,0.2701,0.2705,0.271,0.2823,0.2838,0.285,0,0,0,0,0,0.2638,0.2662,0.2656,0.2661,0.2686,0.2717,0.2721,0.2726,0.2713,0.2732,0.2728,0.2693,0.2715,0.269,0.2685,0.2731,0.2698,0.2704,0.2709,0.2818,0.2835,0.285,0,0,0,0,0,0,0.2652,0.2664,0.2658,0.2686,0.2705,0.2718,0.2736,0.2733,0.2744,0.2742,0.2716,0.2713,0.2752,0.2721,0.2694,0.2763,0.2704,0.2709,0.2789,0.2805,0.2818,0.2884,0.2647,0,0,0,0,0,0.2655,0.2673,0.2685,0.2712,0.2719,0.2725,0.2736,0.2742,0.2752,0.2757,0.2749,0.2748,0.2769,0.2769,0.2777,0.2799,0.2836,0.2829,0.2843,0.2854,0.2906,0.3023,0.3053,0.273,0.273,0.273,0,0,0.2676,0.268,0.2695,0.2715,0.2726,0.2775,0.2732,0.2762,0.2816,0.2749,0.2809,0.2792,0.2788,0.2834,0.2847,0.2812,0.2958,0.2861,0.2871,0.2918,0.3032,0.3064,0.3092,0.2734,0.2733,0.2732,0,0,0.2734,0.2721,0.2761,0.2781,0.2801,0.281,0.2822,0.2839,0.2856,0.2891,0.2884,0.291,0.2899,0.2941,0.2951,0.304,0.3031,0.3019,0.3133,0.3244,0.3273,0.3299,0.3361,0.3391,0.3018,0.3019,0.3019,0,0.2764,0.2803,0.2781,0.283,0.2858,0.2835,0.2897,0.2924,0.2949,0.2975,0.2925,0.2985,0.297,0.3075,0.3114,0.3076,0.3119,0.3068,0.3266,0.3292,0.3317,0.3374,0.3406,0.3025,0.3024,0.3024,0.3023,0,0.2857,0.289,0.2917,0.297,0.3,0.3043,0.3073,0.3102,0.3091,0.3113,0.3182,0.3172,0.3211,0.3207,0.3187,0.3351,0.3317,0.3275,0.3231,0.3357,0.3408,0.3439,0.3034,0.3032,0.303,0.3028,0,0,0.2922,0.2973,0.2982,0.3022,0.307,0.3106,0.3192,0.3259,0.3326,0.3328,0.3418,0.346,0.3437,0.3455,0.3433,0.3529,0.3716,0.3484,0.3487,0.3557,0.3946,0.3748,0.3762,0.3711,0.3717,0.3723,0.3903,0,0.3004,0.3098,0.311,0.3221,0.3271,0.3281,0.3369,0.3427,0.345,0.3528,0.3536,0.3604,0.3538,0.3555,0.3649,0.3703,0.381,0.367,0.3806,0.3811,0.3629,0.3796,0.351,0.3633,0.3934,0.3939,0.3942,0,0.3092,0.3137,0.3241,0.333,0.3355,0.3426,0.353,0.3607,0.3705,0.372,0.3781,0.378,0.3913,0.3826,0.4024,0.3936,0.398,0.401,0.4016,0.3825,0.3673,0.356,0.3678,0.3539,0.399,0.3987,0.3983,0,0.3127,0.3231,0.3304,0.3338,0.3442,0.3497,0.3557,0.366,0.3724,0.3853,0.3888,0.402,0.4061,0.418,0.4193,0.4147,0.439,0.4318,0.419,0.4173,0.3957,0.3909,0.397,0.4513,0.4513,0.4512,0.4512,0,0.3201,0.3271,0.3323,0.337,0.3478,0.3539,0.366,0.3735,0.3843,0.3935,0.3988,0.4067,0.416,0.4254,0.4297,0.4324,0.4472,0.4273,0.4239,0.398,0.3934,0.3819,0.3776,0.4519,0.4517,0.4516,0.4515,0,0.3261,0.3281,0.3373,0.3465,0.3495,0.3576,0.3687,0.3778,0.3869,0.399,0.4031,0.4145,0.4256,0.4307,0.4479,0.441,0.4329,0.4458,0.4111,0.4031,0.3724,0.3697,0.3653,0.3565,0.4373,0.437,0.4367,0,0.3316,0.3365,0.3429,0.3466,0.3513,0.3613,0.3685,0.3783,0.3863,0.4025,0.4086,0.4204,0.4257,0.4374,0.4292,0.4318,0.4228,0.4063,0.3927,0.3723,0.3673,0.3551,0.3474,0.369,0.3681,0.3675,0.3669,0,0.3444,0.3442,0.3493,0.353,0.359,0.3665,0.3761,0.3809,0.393,0.4001,0.4111,0.4168,0.4185,0.4036,0.3991,0.3972,0.3793,0.3922,0.3839,0.3271,0.3025,0.2912,0.3533,0.361,0.3616,0.362,0.3623,0.3626,0.3525,0.356,0.3571,0.3601,0.3655,0.3694,0.3698,0.3782,0.3847,0.3864,0.4021,0.3961,0.3801,0.366,0.3633,0.3271,0.3389,0.3108,0.3137,0.3067,0.2845,0.3304,0.3243,0.3246,0.3249,0.3252,0.3255,0,0.3611,0.3609,0.3648,0.3636,0.3641,0.3671,0.3724,0.3666,0.3657,0.3677,0.3686,0.3424,0.3199,0.3046,0.2666,0.2503,0.2422,0.2422,0.2223,0.2228,0.2742,0.2568,0.2199,0.2199,0.2199,0.2199,0.2199,0.2199,0.3643,0.3659,0.3628,0.3589,0.3579,0.3503,0.348,0.3403,0.3353,0.312,0.2902,0.284,0.2636,0.2298,0.1994,0.1941,0.1834,0.1652,0.1807,0.2165,0.2231,0.2294,0.2122,0.1665,0.1665,0.1118,0.1114,0.111]},{"header":{"parameterUnit":"m.s-1","parameterCategory":2,"la1":30.2991,"la2":30.254,"lo1":-89.0895,"lo2":-89.0444,"dy":0.0017,"dx":0.0017,"nx":28,"ny":28,"refTime":"2025-03-03T09:00:00:Z","depth":"0","parameterNumber":3,"parameterNumberName":"V-component_of_CURRENTS"},"data":[0,0,0,0,0,0,0,0,0,0,0,0,0,0,0,0,0,0,0,0,0,0,0,0,0,0,0,0,0,0,0,0,0,0,0,0,0,0,0,0,0,0,0,0,0,0,0,0,0,0,0,0,0,0,0,0,0,0,0.0188,0.0188,0,0.0158,0.0157,0.0157,0.0121,0.012,0.012,0.012,0.0074,0.0073,0.0072,0,0,0,0,0,0,0,0,0,0,0,0,0,0.0168,0.0169,0.0188,0.0188,0.0188,0.0158,0.0157,0.0157,0.0121,0.012,0.012,0.0119,0.0074,0.0073,0.0072,0,0,0,0,0,0,0,0,0,0,0,0,0,0.016,0.0169,0.0188,0.0168,0.0166,0.0158,0.0157,0.0157,0.0121,0.012,0.012,0.0119,0.0075,0.0073,0.0072,0.0075,0,0,0.0068,0.0067,0,0,0,0,0,0,0,0,0.016,0.016,0.0171,0.0169,0.0167,0.0144,0.0134,0.0129,0.0121,0.0136,0.012,0.0119,0.0098,0.0094,0.0087,0.0073,0.0071,0.0068,0.0067,0.0067,0.0066,0,0,0,0,0,0,0,0.0161,0.0161,0.0174,0.0171,0.0168,0.0144,0.0142,0.0132,0.0119,0.0134,0.0132,0.0132,0.0096,0.0089,0.0086,0.0071,0.0068,0.0067,0.0066,0.0065,0.0064,0.0065,0,0,0,0,0,0,0.0172,0.0162,0.0175,0.0173,0.0164,0.0145,0.0143,0.015,0.0119,0.0114,0.0133,0.0131,0.0091,0.0088,0.0084,0.0118,0.0067,0.0065,0.0065,0.0063,0.0064,0.0065,0,0,0,0,0,0,0.0172,0.0174,0.0176,0.0168,0.0167,0.0147,0.0155,0.015,0.0144,0.0118,0.0112,0.0131,0.0091,0.0086,0.0078,0.0115,0.0065,0.0064,0.0062,0.0063,0.0064,0.0165,0,0,0,0,0,0,0.0171,0.0174,0.018,0.0169,0.0168,0.0181,0.0155,0.015,0.0146,0.0142,0.0115,0.011,0.009,0.008,0.0077,0.0112,0.0063,0.0061,0.0063,0.0064,0.0161,0.017,0.0177,0,0,0,0,0,0.0171,0.0187,0.0181,0.0182,0.0179,0.0182,0.0179,0.0161,0.0146,0.0151,0.0129,0.0111,0.0087,0.008,0.0076,0.0111,0.0061,0.0062,0.0064,0.0158,0.0168,0.0177,0,0,0,0,0,0,0.0177,0.0185,0.0178,0.0194,0.0191,0.0177,0.018,0.0166,0.0152,0.0147,0.0118,0.0112,0.0121,0.0095,0.0088,0.0112,0.0072,0.0073,0.0145,0.0154,0.0162,0.019,0.0061,0,0,0,0,0,0.0184,0.02,0.0198,0.021,0.0213,0.0197,0.0194,0.0183,0.017,0.0163,0.0144,0.0126,0.0125,0.0122,0.011,0.0121,0.0119,0.014,0.0148,0.0155,0.0173,0.0203,0.0217,0.007,0.007,0.007,0,0,0.0187,0.0195,0.0202,0.0212,0.0208,0.0228,0.0194,0.0197,0.0214,0.0161,0.0173,0.0153,0.0133,0.0149,0.0151,0.0132,0.0194,0.0157,0.0164,0.0178,0.0207,0.0221,0.0234,0.0071,0.0071,0.0071,0,0,0.0212,0.0213,0.0239,0.0245,0.025,0.0246,0.0251,0.0242,0.0239,0.0244,0.0219,0.0222,0.0204,0.021,0.0209,0.0253,0.0235,0.0242,0.031,0.0339,0.0352,0.0364,0.038,0.0392,0.0247,0.0248,0.0248,0,0.0213,0.0249,0.0244,0.0273,0.0285,0.0262,0.0291,0.0292,0.0279,0.0288,0.0259,0.0262,0.0243,0.0285,0.03,0.0277,0.028,0.0279,0.0353,0.0365,0.0375,0.0389,0.0401,0.0253,0.0252,0.0252,0.0251,0,0.0265,0.0288,0.0305,0.034,0.0352,0.037,0.0376,0.0385,0.0374,0.0373,0.0397,0.0372,0.0375,0.0375,0.0353,0.0418,0.0393,0.0363,0.0337,0.0396,0.0406,0.0417,0.026,0.0258,0.0257,0.0255,0,0,0.0278,0.0331,0.0337,0.0358,0.0388,0.0399,0.0442,0.0472,0.0493,0.049,0.0524,0.0534,0.0512,0.051,0.0485,0.0515,0.0588,0.0476,0.0475,0.0507,0.065,0.0608,0.0615,0.0573,0.0575,0.0577,0.0629,0,0.0317,0.038,0.0402,0.0454,0.0482,0.049,0.0528,0.0551,0.0557,0.058,0.0584,0.0595,0.0567,0.0562,0.0597,0.0586,0.0621,0.0577,0.0575,0.0575,0.0543,0.0628,0.0617,0.0661,0.064,0.0641,0.0643,0,0.0361,0.0397,0.0457,0.0504,0.0518,0.0547,0.0595,0.0625,0.0664,0.0668,0.0696,0.0681,0.0732,0.0681,0.0736,0.0708,0.0696,0.0688,0.0688,0.0625,0.0554,0.0596,0.0681,0.06,0.0659,0.0658,0.0656,0,0.0361,0.0431,0.0478,0.0496,0.0551,0.058,0.0607,0.0649,0.0677,0.072,0.0737,0.0782,0.0796,0.0814,0.0804,0.0773,0.0854,0.0799,0.0755,0.0751,0.073,0.072,0.0751,0.0847,0.0847,0.0847,0.0846,0,0.0387,0.0418,0.0479,0.0498,0.0549,0.0584,0.0634,0.0664,0.0715,0.0768,0.0774,0.0828,0.0831,0.0867,0.0851,0.0853,0.0895,0.0797,0.0776,0.0761,0.0754,0.0668,0.0615,0.0849,0.0848,0.0848,0.0847,0,0.0368,0.0413,0.0461,0.0525,0.0547,0.0577,0.0643,0.0684,0.0722,0.0794,0.0812,0.0877,0.0945,0.094,0.0971,0.0905,0.0864,0.0891,0.0867,0.0843,0.0692,0.0644,0.0661,0.0626,0.0849,0.0849,0.0848,0,0.0365,0.0388,0.0463,0.05,0.0528,0.058,0.0625,0.068,0.0735,0.084,0.0889,0.0963,0.107,0.109,0.1009,0.0983,0.0895,0.0878,0.0813,0.0713,0.0645,0.0614,0.0581,0.0826,0.0826,0.0825,0.0825,0,0.0348,0.0374,0.0416,0.0497,0.0551,0.0613,0.0685,0.0732,0.0821,0.0905,0.1051,0.115,0.1172,0.1173,0.108,0.1024,0.0808,0.0863,0.0785,0.0663,0.0611,0.0557,0.0747,0.0821,0.0821,0.0821,0.0822,0.0822,0.0335,0.0361,0.0431,0.0509,0.0573,0.0666,0.0731,0.0842,0.0964,0.1148,0.12,0.1405,0.1307,0.1216,0.108,0.0782,0.0809,0.0687,0.0649,0.0636,0.0573,0.0744,0.0769,0.0769,0.0769,0.0769,0.0769,0,0.0338,0.038,0.0448,0.0551,0.0631,0.0668,0.0793,0.0895,0.108,0.1294,0.1464,0.1566,0.1431,0.1216,0.0824,0.0613,0.0532,0.0503,0.0466,0.045,0.0632,0.0599,0.0558,0.0558,0.0558,0.0558,0.0558,0.0558,0.0347,0.0409,0.0458,0.0595,0.0667,0.0789,0.0872,0.1048,0.1231,0.1517,0.1695,0.1825,0.1648,0.099,0.0552,0.0444,0.031,0.0278,0.0229,0.0343,0.0357,0.0371,0.0328,0.0232,0.0231,0.0068,0.0066,0.0064]}],[{"header":{"parameterUnit":"m.s-1","parameterCategory":2,"la1":30.2991,"la2":30.254,"lo1":-89.0895,"lo2":-89.0444,"dy":0.0017,"dx":0.0017,"nx":28,"ny":28,"refTime":"2025-03-03T09:00:00:Z","depth":"2","parameterNumber":2,"parameterNumberName":"U-component_of_CURRENTS"},"data":[0,0,0,0,0,0,0,0,0,0,0,0,0,0,0,0,0,0,0,0,0,0,0,0,0,0,0,0,0,0,0,0,0,0,0,0,0,0,0,0,0,0,0,0,0,0,0,0,0,0,0,0,0,0,0,0,0,0,0.2012,0.2012,0,0.2003,0.2003,0.2003,0.1997,0.1997,0.1997,0.1997,0.1991,0.1991,0.199,0,0,0,0,0,0,0,0,0,0,0,0,0,0.203,0.2029,0.2012,0.2012,0.2012,0.2004,0.2003,0.2003,0.1997,0.1997,0.1997,0.1997,0.1991,0.1991,0.199,0,0,0,0,0,0,0,0,0,0,0,0,0,0.202,0.2029,0.2012,0.2009,0.2009,0.2004,0.2003,0.2003,0.1997,0.1997,0.1997,0.1997,0.1991,0.1991,0.199,0.1985,0,0,0.1989,0.1989,0,0,0,0,0,0,0,0,0.2021,0.2019,0.2009,0.2009,0.2009,0.2003,0.2007,0.1998,0.1997,0.2,0.1997,0.1998,0.1996,0.1995,0.1991,0.1985,0.1984,0.1989,0.1989,0.1989,0.1989,0,0,0,0,0,0,0,0.2021,0.202,0.2007,0.2009,0.2009,0.2011,0.2009,0.2005,0.1996,0.1999,0.1999,0.2001,0.1996,0.1991,0.1991,0.1984,0.1989,0.1989,0.1989,0.1988,0.2044,0.2046,0,0,0,0,0,0,0.2025,0.202,0.2007,0.2007,0.2017,0.2011,0.2009,0.2003,0.1996,0.1995,0.2001,0.2001,0.1992,0.1991,0.1991,0.2042,0.1989,0.1988,0.1988,0.2043,0.2045,0.2047,0,0,0,0,0,0,0.2025,0.2023,0.2007,0.2015,0.2013,0.201,0.2004,0.2003,0.201,0.1997,0.1997,0.2011,0.1992,0.1991,0.2007,0.2039,0.1988,0.1988,0.2041,0.2043,0.2046,0.2107,0,0,0,0,0,0,0.2026,0.2023,0.2026,0.2015,0.2013,0.2014,0.2004,0.2003,0.2011,0.2011,0.2005,0.2004,0.1992,0.2008,0.2006,0.2038,0.1988,0.2039,0.2042,0.2045,0.2103,0.2111,0.2119,0,0,0,0,0,0.2026,0.2029,0.2026,0.2025,0.2015,0.2015,0.2014,0.2011,0.2012,0.2018,0.2021,0.2005,0.2028,0.2008,0.2007,0.2039,0.2037,0.2041,0.2045,0.2099,0.211,0.2118,0,0,0,0,0,0,0.2041,0.2029,0.2025,0.2025,0.2025,0.2015,0.2022,0.202,0.2026,0.2032,0.2018,0.2018,0.2045,0.2035,0.2014,0.2067,0.2033,0.2037,0.2075,0.2085,0.2093,0.2123,0.1987,0,0,0,0,0,0.2045,0.2042,0.2035,0.2036,0.2038,0.2032,0.2035,0.2035,0.2037,0.204,0.2039,0.2046,0.2058,0.2065,0.2069,0.2092,0.2108,0.2116,0.2124,0.213,0.2156,0.221,0.2226,0.2059,0.2059,0.2059,0,0,0.2052,0.2045,0.2045,0.204,0.2039,0.205,0.2034,0.2045,0.2062,0.2038,0.2067,0.207,0.207,0.21,0.2113,0.2096,0.2185,0.2135,0.2141,0.2163,0.2216,0.2232,0.2247,0.2062,0.2062,0.2061,0,0,0.2068,0.206,0.2066,0.2069,0.2074,0.2072,0.2079,0.2082,0.209,0.2114,0.211,0.2143,0.2145,0.2166,0.2173,0.223,0.2223,0.2225,0.2291,0.2344,0.2358,0.2371,0.2404,0.242,0.2232,0.2232,0.2232,0,0.208,0.2078,0.2071,0.2083,0.2087,0.2085,0.21,0.2112,0.2124,0.2145,0.2134,0.2185,0.2185,0.2239,0.2266,0.225,0.227,0.225,0.2355,0.2368,0.238,0.2411,0.2428,0.2235,0.2235,0.2235,0.2234,0,0.2101,0.2103,0.2109,0.2119,0.213,0.2139,0.2154,0.2178,0.219,0.2208,0.2263,0.2274,0.2311,0.2317,0.231,0.2398,0.238,0.2355,0.233,0.2401,0.2429,0.2445,0.224,0.2239,0.2238,0.2237,0,0,0.2108,0.2119,0.2122,0.2128,0.2145,0.2155,0.2198,0.2231,0.2264,0.2302,0.2353,0.2401,0.2421,0.2434,0.2434,0.2488,0.2588,0.2468,0.2469,0.2501,0.2699,0.2568,0.2572,0.2579,0.2582,0.2585,0.2681,0,0.212,0.2137,0.2147,0.2173,0.2177,0.22,0.2236,0.2279,0.2307,0.236,0.2411,0.2454,0.2459,0.248,0.2544,0.2564,0.2634,0.2564,0.2627,0.2629,0.2504,0.2588,0.236,0.2417,0.2696,0.2698,0.27,0,0.2135,0.2136,0.2157,0.2183,0.2192,0.2221,0.2273,0.2308,0.2388,0.2417,0.2492,0.2517,0.2613,0.2596,0.2717,0.267,0.2714,0.2733,0.2736,0.2609,0.2529,0.2394,0.2434,0.2726,0.2724,0.2722,0.2721,0,0.2123,0.2147,0.2158,0.2166,0.2202,0.2233,0.2264,0.2332,0.2369,0.246,0.2501,0.2599,0.2672,0.2729,0.2775,0.276,0.2887,0.286,0.2794,0.2784,0.2601,0.2569,0.2981,0.2981,0.2981,0.2981,0.298,0,0.2122,0.2131,0.2155,0.2159,0.2192,0.2229,0.2276,0.2328,0.2404,0.2462,0.2536,0.2593,0.2719,0.2788,0.2807,0.2837,0.2919,0.2834,0.2813,0.2612,0.2581,0.2854,0.2838,0.2984,0.2983,0.2983,0.2982,0,0.211,0.2124,0.2138,0.2172,0.2184,0.2218,0.2276,0.2305,0.2389,0.2468,0.2505,0.2643,0.2734,0.2805,0.2914,0.2886,0.29,0.2897,0.2642,0.2588,0.2762,0.2748,0.2849,0.2845,0.2842,0.284,0.2838,0,0.2097,0.2094,0.2135,0.2139,0.2155,0.2193,0.221,0.2294,0.2327,0.2472,0.2508,0.2651,0.2699,0.2781,0.2769,0.2774,0.2872,0.2571,0.2505,0.2786,0.2755,0.2746,0.2737,0.2295,0.2288,0.2283,0.2279,0,0.2057,0.2082,0.2097,0.2127,0.2149,0.2152,0.219,0.2197,0.2304,0.2373,0.2447,0.2491,0.2594,0.2497,0.2526,0.2495,0.2533,0.2463,0.2849,0.2342,0.2265,0.2234,0.2243,0.2232,0.2237,0.2241,0.2243,0.2245,0.2031,0.2038,0.2082,0.2111,0.2118,0.2098,0.2053,0.2102,0.2144,0.2187,0.2302,0.2287,0.2324,0.2234,0.2151,0.2104,0.2299,0.2196,0.2212,0.2234,0.2132,0.2051,0.196,0.1963,0.1965,0.1967,0.1969,0,0.198,0.2018,0.2044,0.2048,0.1996,0.2063,0.2021,0.195,0.1931,0.2011,0.204,0.1867,0.1798,0.183,0.1677,0.1659,0.1654,0.1598,0.1577,0.1624,0.1666,0.1534,0.1205,0.1202,0.12,0.1198,0,0,0.1958,0.1971,0.1997,0.1937,0.1913,0.1833,0.1775,0.1703,0.1699,0.1638,0.1611,0.1728,0.177,0.1472,0.1426,0.1285,0.1448,0.1233,0.1849,0.1872,0.1911,0.2014,0.1864,0,0,0,0,0]},{"header":{"parameterUnit":"m.s-1","parameterCategory":2,"la1":30.2991,"la2":30.254,"lo1":-89.0895,"lo2":-89.0444,"dy":0.0017,"dx":0.0017,"nx":28,"ny":28,"refTime":"2025-03-03T09:00:00:Z","depth":"2","parameterNumber":3,"parameterNumberName":"V-component_of_CURRENTS"},"data":[0,0,0,0,0,0,0,0,0,0,0,0,0,0,0,0,0,0,0,0,0,0,0,0,0,0,0,0,0,0,0,0,0,0,0,0,0,0,0,0,0,0,0,0,0,0,0,0,0,0,0,0,0,0,0,0,0,0,0.0278,0.0278,0,0.0268,0.0268,0.0268,0.0258,0.0258,0.0258,0.0258,0.0233,0.0233,0.0232,0,0,0,0,0,0,0,0,0,0,0,0,0,0.0243,0.0244,0.0278,0.0278,0.0278,0.0268,0.0268,0.0268,0.0258,0.0258,0.0258,0.0258,0.0234,0.0233,0.0232,0,0,0,0,0,0,0,0,0,0,0,0,0,0.0247,0.0244,0.0278,0.0273,0.0272,0.0268,0.0268,0.0267,0.0258,0.0258,0.0258,0.0258,0.0234,0.0233,0.0232,0.0227,0,0,0.0229,0.0229,0,0,0,0,0,0,0,0,0.0247,0.0248,0.0274,0.0273,0.0273,0.0265,0.0246,0.0254,0.0258,0.0262,0.0258,0.0258,0.0243,0.0242,0.0239,0.0226,0.0225,0.0229,0.0229,0.0228,0.0228,0,0,0,0,0,0,0,0.0247,0.0248,0.0273,0.0274,0.0273,0.0255,0.0256,0.0247,0.0252,0.0262,0.0261,0.0262,0.0243,0.024,0.0238,0.0225,0.0229,0.0228,0.0228,0.0228,0.0209,0.0209,0,0,0,0,0,0,0.0253,0.0248,0.0274,0.0273,0.026,0.0256,0.0257,0.0267,0.0253,0.0251,0.0262,0.0261,0.0241,0.0239,0.0237,0.0247,0.0228,0.0227,0.0227,0.0209,0.0209,0.0209,0,0,0,0,0,0,0.0252,0.0255,0.0274,0.026,0.0262,0.0257,0.0268,0.0267,0.0266,0.0253,0.0251,0.0263,0.0241,0.0238,0.0233,0.0246,0.0227,0.0226,0.0209,0.0209,0.0209,0.0257,0,0,0,0,0,0,0.0251,0.0255,0.0262,0.0261,0.0263,0.0277,0.0268,0.0266,0.0267,0.0266,0.0253,0.0251,0.0241,0.0235,0.0232,0.0244,0.0225,0.0208,0.0209,0.0209,0.0255,0.0259,0.0262,0,0,0,0,0,0.025,0.0263,0.0263,0.0265,0.0273,0.0277,0.0276,0.0271,0.0267,0.0269,0.026,0.0251,0.0233,0.0234,0.0231,0.0243,0.0208,0.0209,0.0209,0.0254,0.0258,0.0261,0,0,0,0,0,0,0.0246,0.0263,0.0263,0.0279,0.0279,0.0276,0.0278,0.0274,0.0268,0.0267,0.0253,0.025,0.025,0.0236,0.0237,0.0236,0.0219,0.0218,0.0254,0.0258,0.0261,0.0275,0.0225,0,0,0,0,0,0.025,0.0268,0.0272,0.0284,0.0287,0.0282,0.0282,0.028,0.0276,0.0273,0.0265,0.0254,0.0247,0.0245,0.0235,0.0235,0.0224,0.0239,0.0242,0.0245,0.0253,0.0244,0.0248,0.0209,0.0209,0.0209,0,0,0.0251,0.0263,0.0271,0.0285,0.0285,0.0298,0.0282,0.0287,0.0297,0.0271,0.0279,0.0265,0.0249,0.0251,0.0249,0.0242,0.025,0.0245,0.0248,0.0255,0.0245,0.0248,0.0252,0.0209,0.0209,0.0209,0,0,0.0265,0.0273,0.0294,0.03,0.0307,0.0308,0.0311,0.0311,0.0309,0.0311,0.0297,0.0291,0.0278,0.0274,0.0269,0.0282,0.0266,0.0275,0.0306,0.0297,0.0301,0.0304,0.0297,0.0299,0.0279,0.0279,0.0279,0,0.0263,0.0296,0.0296,0.0317,0.0329,0.0316,0.0339,0.0334,0.0331,0.0338,0.0318,0.031,0.0291,0.0304,0.0305,0.0291,0.0282,0.0297,0.0303,0.0306,0.0308,0.03,0.0302,0.0281,0.0281,0.028,0.028,0,0.0296,0.0319,0.0331,0.036,0.0369,0.0385,0.0385,0.039,0.0383,0.0382,0.0386,0.0358,0.0357,0.0345,0.0328,0.0339,0.0326,0.0309,0.0298,0.0315,0.0305,0.0306,0.0284,0.0283,0.0283,0.0282,0,0,0.0301,0.0347,0.0352,0.0382,0.0397,0.0414,0.0428,0.0448,0.0474,0.0447,0.0475,0.0444,0.0429,0.0421,0.0397,0.0384,0.0384,0.0355,0.0353,0.0357,0.0368,0.0332,0.0329,0.0368,0.0369,0.0369,0.0356,0,0.0328,0.0386,0.0397,0.045,0.0482,0.0482,0.0506,0.0518,0.0518,0.0538,0.0503,0.0514,0.0458,0.0463,0.0438,0.0404,0.0388,0.039,0.0344,0.0342,0.0315,0.0329,0.0346,0.0334,0.0357,0.0357,0.0357,0,0.036,0.04,0.0459,0.0521,0.0535,0.0562,0.0613,0.0631,0.0645,0.0646,0.0637,0.0608,0.0588,0.0534,0.0477,0.0481,0.0428,0.0391,0.0389,0.0341,0.0307,0.0319,0.0334,0.0358,0.0358,0.0358,0.0358,0,0.0384,0.0446,0.0502,0.0521,0.0579,0.0611,0.0643,0.067,0.0711,0.0719,0.075,0.0701,0.0706,0.0619,0.0518,0.0505,0.0451,0.0424,0.0343,0.034,0.0338,0.0334,0.0383,0.0383,0.0383,0.0383,0.0383,0,0.0419,0.0464,0.0524,0.0558,0.0638,0.0658,0.0739,0.076,0.0809,0.0881,0.0814,0.0849,0.0729,0.0674,0.0557,0.0452,0.0478,0.0354,0.0335,0.0354,0.0351,0.0356,0.0353,0.0383,0.0383,0.0383,0.0383,0,0.0442,0.0476,0.0549,0.0623,0.0654,0.0714,0.0817,0.0884,0.0911,0.1002,0.1012,0.0984,0.0913,0.0772,0.065,0.053,0.0411,0.0365,0.0391,0.0374,0.0298,0.0297,0.0284,0.0283,0.0282,0.0281,0.028,0,0.0466,0.0505,0.0599,0.0659,0.07,0.0792,0.0871,0.0931,0.1012,0.1087,0.1144,0.1101,0.1072,0.0861,0.0652,0.0447,0.0419,0.0325,0.0293,0.0306,0.0288,0.029,0.0291,0.0314,0.0314,0.0313,0.0313,0,0.0516,0.0542,0.0603,0.0723,0.0817,0.0926,0.1041,0.1118,0.1205,0.1265,0.1325,0.1296,0.1113,0.0906,0.063,0.0486,0.0351,0.031,0.0333,0.0327,0.033,0.0314,0.0315,0.031,0.031,0.031,0.031,0.0311,0.0552,0.0603,0.0687,0.0802,0.0915,0.1056,0.114,0.1256,0.1373,0.1452,0.1437,0.1373,0.117,0.0793,0.0573,0.0335,0.0346,0.0248,0.0251,0.0255,0.0251,0.025,0.0215,0.0215,0.0215,0.0215,0.0214,0,0.061,0.0667,0.0771,0.0906,0.1029,0.1085,0.1255,0.1324,0.1443,0.1489,0.1498,0.1264,0.1055,0.0808,0.0463,0.026,0.0251,0.0188,0.023,0.0235,0.0239,0.0235,0.0195,0.0194,0.0194,0.0193,0,0,0.0643,0.074,0.079,0.0982,0.1078,0.1226,0.1315,0.1404,0.1453,0.1462,0.1405,0.1353,0.1083,0.0828,0.0576,0.0384,0.0348,0.0338,0.0375,0.046,0.0466,0.0294,0.0296,0,0,0,0,0]}],[{"header":{"parameterUnit":"m.s-1","parameterCategory":2,"la1":30.2991,"la2":30.254,"lo1":-89.0895,"lo2":-89.0444,"dy":0.0017,"dx":0.0017,"nx":28,"ny":28,"refTime":"2025-03-03T09:00:00:Z","depth":"4","parameterNumber":2,"parameterNumberName":"U-component_of_CURRENTS"},"data":[0,0,0,0,0,0,0,0,0,0,0,0,0,0,0,0,0,0,0,0,0,0,0,0,0,0,0,0,0,0,0,0,0,0,0,0,0,0,0,0,0,0,0,0,0,0,0,0,0,0,0,0,0,0,0,0,0,0,0.1178,0.1179,0,0.1195,0.1195,0.1196,0.1221,0.1221,0.1222,0.1222,0.1268,0.1268,0.1269,0,0,0,0,0,0,0,0,0,0,0,0,0,0.1185,0.1184,0.1178,0.1179,0.1179,0.1195,0.1195,0.1196,0.1221,0.1221,0.1222,0.1223,0.1268,0.1268,0.1269,0,0,0,0,0,0,0,0,0,0,0,0,0,0.1188,0.1184,0.1178,0.1195,0.1196,0.1195,0.1195,0.1196,0.122,0.1221,0.1222,0.1223,0.1267,0.1268,0.1269,0.1258,0,0,0.1272,0.1273,0,0,0,0,0,0,0,0,0.1188,0.1188,0.1192,0.1194,0.1196,0.1208,0.1215,0.1218,0.122,0.121,0.1222,0.1223,0.1251,0.1253,0.1252,0.126,0.1262,0.1272,0.1273,0.1273,0.1274,0,0,0,0,0,0,0,0.1188,0.1187,0.1183,0.1192,0.1194,0.1207,0.1208,0.1215,0.1224,0.1211,0.1213,0.1217,0.1252,0.1251,0.1253,0.1262,0.1272,0.1273,0.1274,0.1274,0.134,0.1341,0,0,0,0,0,0,0.1187,0.1187,0.1183,0.1184,0.1196,0.1207,0.1208,0.1202,0.1224,0.1228,0.1216,0.1218,0.1249,0.1252,0.1255,0.1314,0.1273,0.1274,0.1275,0.1339,0.134,0.1341,0,0,0,0,0,0,0.1187,0.1186,0.1182,0.1188,0.1189,0.1206,0.1199,0.1202,0.1227,0.1228,0.1233,0.1241,0.1249,0.1254,0.1281,0.1314,0.1275,0.1276,0.1337,0.1339,0.1341,0.1387,0,0,0,0,0,0,0.1187,0.1185,0.1195,0.1187,0.1188,0.1195,0.1198,0.1202,0.1227,0.123,0.125,0.1254,0.125,0.128,0.1282,0.1314,0.1276,0.1336,0.1338,0.134,0.1384,0.139,0.1396,0,0,0,0,0,0.1187,0.1188,0.1195,0.1196,0.1196,0.1195,0.1197,0.1211,0.1228,0.1238,0.1255,0.1255,0.1296,0.1281,0.1284,0.1317,0.1335,0.1338,0.134,0.1382,0.1389,0.1395,0,0,0,0,0,0,0.1197,0.1191,0.1198,0.1199,0.1206,0.1201,0.1217,0.1226,0.1246,0.1262,0.1263,0.1268,0.1307,0.1303,0.1287,0.1343,0.1318,0.1321,0.1349,0.1356,0.1361,0.1366,0.1277,0,0,0,0,0,0.1203,0.1206,0.1202,0.1209,0.1213,0.1222,0.1231,0.124,0.125,0.1262,0.1276,0.1295,0.1315,0.1328,0.1341,0.1366,0.1368,0.1391,0.1397,0.1401,0.1407,0.1436,0.1445,0.135,0.135,0.135,0,0,0.1211,0.1209,0.1213,0.1213,0.1222,0.1228,0.123,0.1249,0.1267,0.1263,0.1302,0.1317,0.1326,0.1358,0.1376,0.1362,0.143,0.1405,0.1409,0.1412,0.144,0.1449,0.1458,0.1352,0.1351,0.1351,0,0,0.1217,0.1226,0.1229,0.1233,0.1249,0.1254,0.1266,0.1276,0.1297,0.1327,0.1336,0.1369,0.1394,0.1406,0.1416,0.1459,0.146,0.1472,0.1504,0.1532,0.154,0.1547,0.1563,0.1571,0.1473,0.1473,0.1473,0,0.1233,0.1225,0.1233,0.1235,0.1244,0.1268,0.1276,0.1297,0.1319,0.1342,0.135,0.1408,0.1417,0.1457,0.1475,0.1474,0.1486,0.1476,0.154,0.1547,0.1553,0.1567,0.1575,0.1475,0.1475,0.1475,0.1475,0,0.1229,0.1235,0.124,0.125,0.1264,0.1276,0.13,0.1331,0.1366,0.1387,0.1446,0.1463,0.15,0.1511,0.1508,0.1563,0.1556,0.1544,0.1522,0.1566,0.1577,0.1585,0.1479,0.1478,0.1477,0.1477,0,0,0.1229,0.1235,0.1241,0.1244,0.1273,0.1279,0.1324,0.136,0.1395,0.1443,0.1488,0.1535,0.1563,0.1575,0.1585,0.1608,0.1665,0.1602,0.1603,0.1616,0.1728,0.1607,0.1604,0.167,0.1671,0.1673,0.1718,0,0.1227,0.1225,0.1238,0.1255,0.1252,0.1293,0.1325,0.1371,0.142,0.1471,0.1522,0.1571,0.1583,0.1611,0.1643,0.1659,0.1688,0.1653,0.1684,0.1685,0.1571,0.1609,0.1678,0.1723,0.1725,0.1726,0.1727,0,0.1214,0.1212,0.122,0.1241,0.1248,0.1275,0.1337,0.137,0.1451,0.1493,0.1566,0.1608,0.1675,0.1668,0.174,0.1722,0.1738,0.1742,0.1744,0.1619,0.1578,0.1671,0.1741,0.174,0.1739,0.1738,0.1737,0,0.1185,0.1202,0.1209,0.1215,0.1246,0.1278,0.1313,0.1385,0.1426,0.1521,0.1567,0.1648,0.1704,0.1742,0.1782,0.177,0.1841,0.1819,0.1725,0.1716,0.1792,0.1783,0.1868,0.1868,0.1867,0.1867,0.1867,0,0.115,0.1156,0.1202,0.1198,0.1223,0.1263,0.1312,0.136,0.1444,0.1494,0.1587,0.1638,0.1729,0.1785,0.1801,0.1789,0.1866,0.1736,0.1722,0.181,0.1803,0.1797,0.1788,0.1869,0.1869,0.1868,0.1868,0,0.1091,0.1123,0.1135,0.1185,0.1204,0.1229,0.1306,0.1332,0.143,0.15,0.1539,0.1658,0.1727,0.1793,0.1852,0.1802,0.1801,0.1779,0.1876,0.1865,0.1651,0.1645,0.1666,0.1662,0.1658,0.1656,0.1653,0,0.105,0.1048,0.112,0.1132,0.1156,0.1201,0.122,0.1316,0.1355,0.1496,0.152,0.1635,0.1701,0.1695,0.1763,0.1778,0.176,0.1736,0.1685,0.1648,0.1633,0.1631,0.1629,0.1648,0.1647,0.1646,0.1646,0,0.0962,0.1013,0.1024,0.1062,0.1093,0.1113,0.1165,0.1191,0.1302,0.1408,0.1471,0.1511,0.1583,0.1629,0.1658,0.1663,0.1731,0.1701,0.1708,0.1659,0.1627,0.1615,0.1616,0.1634,0.1636,0.1637,0.1638,0,0.0911,0.0909,0.0951,0.0974,0.101,0.1015,0.1052,0.1098,0.1156,0.1325,0.1343,0.1462,0.1574,0.157,0.1595,0.1592,0.1561,0.1488,0.1505,0.1518,0.1447,0.1383,0.1307,0,0,0,0,0,0.0853,0.0838,0.0849,0.0873,0.0908,0.0938,0.1003,0.105,0.1176,0.1184,0.1265,0.1327,0.1372,0.1434,0.1403,0.1515,0.1557,0.1466,0.1479,0.1571,0.1584,0.1513,0,0,0,0,0,0,0.081,0.0813,0.0819,0.0789,0.0791,0.0815,0.086,0.0936,0.0959,0.1098,0.1141,0.1235,0.1311,0.1389,0.1379,0.1394,0.1367,0.1543,0.1538,0.1564,0.1576,0.1586,0.1517,0,0,0,0,0]},{"header":{"parameterUnit":"m.s-1","parameterCategory":2,"la1":30.2991,"la2":30.254,"lo1":-89.0895,"lo2":-89.0444,"dy":0.0017,"dx":0.0017,"nx":28,"ny":28,"refTime":"2025-03-03T09:00:00:Z","depth":"4","parameterNumber":3,"parameterNumberName":"V-component_of_CURRENTS"},"data":[0,0,0,0,0,0,0,0,0,0,0,0,0,0,0,0,0,0,0,0,0,0,0,0,0,0,0,0,0,0,0,0,0,0,0,0,0,0,0,0,0,0,0,0,0,0,0,0,0,0,0,0,0,0,0,0,0,0,0.0224,0.0224,0,0.0226,0.0226,0.0226,0.0232,0.0232,0.0232,0.0233,0.023,0.023,0.0229,0,0,0,0,0,0,0,0,0,0,0,0,0,0.0193,0.0194,0.0224,0.0224,0.0224,0.0226,0.0226,0.0226,0.0232,0.0232,0.0232,0.0233,0.023,0.023,0.0229,0,0,0,0,0,0,0,0,0,0,0,0,0,0.0201,0.0194,0.0224,0.0228,0.0228,0.0226,0.0226,0.0226,0.0232,0.0232,0.0232,0.0233,0.023,0.023,0.0229,0.0221,0,0,0.0228,0.0228,0,0,0,0,0,0,0,0,0.0201,0.0202,0.0227,0.0228,0.0228,0.023,0.0214,0.0224,0.0232,0.023,0.0233,0.0233,0.023,0.0229,0.0228,0.022,0.022,0.0228,0.0228,0.0228,0.0227,0,0,0,0,0,0,0,0.02,0.0202,0.0224,0.0227,0.0228,0.0218,0.022,0.0216,0.0227,0.023,0.0231,0.0232,0.023,0.0228,0.0228,0.022,0.0228,0.0228,0.0227,0.0227,0.0212,0.0212,0,0,0,0,0,0,0.0203,0.0202,0.0224,0.0224,0.0216,0.0219,0.0221,0.0228,0.0227,0.0228,0.0232,0.0232,0.0229,0.0228,0.0228,0.0233,0.0228,0.0227,0.0227,0.0213,0.0212,0.0212,0,0,0,0,0,0,0.0202,0.0205,0.0224,0.0213,0.0215,0.0219,0.0227,0.0228,0.0233,0.0229,0.0229,0.0237,0.0229,0.0228,0.0229,0.0232,0.0227,0.0227,0.0213,0.0212,0.0212,0.0234,0,0,0,0,0,0,0.0202,0.0205,0.0212,0.0213,0.0216,0.0227,0.0227,0.0228,0.0233,0.0234,0.0233,0.0233,0.0229,0.023,0.0229,0.0232,0.0226,0.0213,0.0213,0.0212,0.0233,0.0234,0.0235,0,0,0,0,0,0.02,0.0209,0.0212,0.0215,0.0225,0.0227,0.0227,0.023,0.0233,0.0236,0.0236,0.0233,0.0227,0.023,0.0229,0.0231,0.0213,0.0213,0.0212,0.0233,0.0234,0.0235,0,0,0,0,0,0,0.0195,0.021,0.0214,0.0226,0.0228,0.0228,0.0232,0.0233,0.0235,0.0238,0.0234,0.0233,0.0234,0.0228,0.0231,0.0225,0.0218,0.0218,0.0234,0.0235,0.0236,0.0243,0.0226,0,0,0,0,0,0.0198,0.0212,0.0217,0.0227,0.0229,0.0231,0.0233,0.0236,0.0237,0.0239,0.0238,0.0235,0.023,0.023,0.0224,0.0223,0.0207,0.0222,0.0223,0.0224,0.0228,0.0202,0.0201,0.0211,0.0211,0.0211,0,0,0.0198,0.0209,0.0215,0.0227,0.023,0.0238,0.0233,0.0239,0.0246,0.0237,0.0247,0.0239,0.023,0.0229,0.0228,0.0226,0.0212,0.0224,0.0225,0.0228,0.0202,0.0201,0.02,0.0211,0.0211,0.0211,0,0,0.0205,0.0215,0.0228,0.0234,0.0242,0.0245,0.0248,0.0252,0.0254,0.0258,0.0252,0.0246,0.0243,0.0236,0.0232,0.0233,0.0217,0.0231,0.0244,0.0219,0.0218,0.0217,0.0193,0.019,0.0233,0.0233,0.0233,0,0.0204,0.0227,0.023,0.0243,0.0254,0.025,0.0266,0.0262,0.0266,0.0271,0.0264,0.0255,0.0245,0.0243,0.0242,0.0236,0.022,0.0242,0.0221,0.022,0.0218,0.0194,0.019,0.0234,0.0234,0.0233,0.0233,0,0.0221,0.024,0.0248,0.0269,0.0277,0.0289,0.029,0.0294,0.0295,0.0295,0.0292,0.0272,0.0271,0.026,0.0252,0.0241,0.0232,0.0225,0.022,0.0219,0.0193,0.0188,0.0235,0.0235,0.0234,0.0234,0,0,0.0221,0.0256,0.026,0.0283,0.0297,0.0309,0.0316,0.0328,0.0344,0.0326,0.0338,0.0312,0.0303,0.0297,0.028,0.0253,0.0226,0.0238,0.0237,0.0218,0.0172,0.0162,0.0156,0.0216,0.0215,0.0215,0.0157,0,0.0238,0.0279,0.0287,0.0326,0.0351,0.0352,0.0366,0.0373,0.0372,0.0379,0.0345,0.0349,0.0316,0.0319,0.0285,0.0246,0.0215,0.0242,0.0173,0.0171,0.0165,0.0152,0.0213,0.0153,0.0152,0.0151,0.0151,0,0.0256,0.0288,0.0332,0.0378,0.0388,0.0407,0.0441,0.0451,0.0449,0.0447,0.0431,0.0408,0.0372,0.0342,0.0261,0.0282,0.023,0.0188,0.0185,0.0167,0.0153,0.0154,0.0143,0.0143,0.0144,0.0144,0.0145,0,0.0275,0.0321,0.0366,0.038,0.0422,0.0445,0.0467,0.0479,0.0501,0.0494,0.0504,0.0453,0.0437,0.0358,0.0269,0.0268,0.0172,0.0162,0.01,0.0099,0.0117,0.0118,0.0099,0.0099,0.0099,0.01,0.01,0,0.0299,0.0335,0.0384,0.041,0.0469,0.0484,0.054,0.0547,0.0567,0.0595,0.0548,0.0546,0.0441,0.0373,0.0282,0.0177,0.0181,0.0099,0.0082,0.0126,0.013,0.0113,0.0115,0.0097,0.0098,0.0098,0.0099,0,0.0316,0.0345,0.0403,0.0461,0.0482,0.0529,0.0597,0.0632,0.0643,0.0674,0.0674,0.062,0.053,0.0415,0.0287,0.0206,0.01,0.0062,0.0118,0.0106,0.0039,0.0043,-0.0011,-0.0012,-0.0013,-0.0014,-0.0014,0,0.0331,0.0363,0.0443,0.0484,0.0516,0.0587,0.0633,0.0669,0.0706,0.0714,0.0727,0.0657,0.0602,0.0417,0.0289,0.0113,0.0086,0.0028,0.0027,0.0038,0.0027,0.0033,0.0037,-0.0015,-0.0015,-0.0016,-0.0016,0,0.0359,0.0388,0.0435,0.0521,0.0584,0.0657,0.0723,0.0755,0.0788,0.0796,0.077,0.0672,0.0571,0.042,0.0285,0.0156,0.0062,0.002,0.002,0.0019,0.0033,0.0024,0.003,-0.0018,-0.0018,-0.0018,-0.0017,0,0.0377,0.0416,0.0478,0.0554,0.063,0.07,0.074,0.078,0.0816,0.0817,0.0804,0.0692,0.063,0.0443,0.0315,0.0189,0.0154,0.0106,0.0101,0.0102,0.0148,0.0183,0.0162,0,0,0,0,0,0.0395,0.0436,0.0505,0.0585,0.066,0.0708,0.0784,0.0816,0.0843,0.083,0.0821,0.0723,0.0537,0.046,0.0333,0.0292,0.0126,0.0137,0.0067,-0.0032,-0.0029,0.0004,0,0,0,0,0,0,0.0404,0.0466,0.0503,0.0594,0.0651,0.0736,0.0789,0.0811,0.0809,0.0813,0.0722,0.0679,0.0504,0.0607,0.0326,0.0288,0.0223,0.0055,0.0052,-0.0034,-0.0031,-0.0029,0.0006,0,0,0,0,0]}]]